Torna al catalogo

FOSSASAT2E20

TAT-O

AttivoComunicazioniSSO
NORAD 63003·PAYLOAD·🇪🇸 Spain

Lanciato Jan 14, 2025 da Vandenberg Space Force Base

Loading…

Prossimi Passaggi (prossime 24 ore)

TLE

AggiornatoSource: Space-Track

Epoca: Sep 14, 2026, 12:23 UTC

1 63003U 25009DN  26257.51621997  .00010942  00000-0  35919-3 0  9996
2 63003  97.3096 332.1043 0003278  40.3939 319.7546 15.31753251150174

Traccia FOSSASAT2E20 in tempo reale con AllMySat

Download on the App Store